Voltar ao catálogo

THORAD AGENA D DEB

AtivoSSO
NORAD 5067·DEBRIS·🇺🇸 United States

Lançado Apr 8, 1970 de Vandenberg Space Force Base

Loading…

Próximas Passagens (próximas 24 horas)

TLE

AtualizadoSource: Space-Track

Época: Sep 14, 2026, 22:32 UTC

1 05067U 70025JM  26257.93891354  .00000265  00000-0  38354-3 0  9995
2 05067  99.9876 155.5710 0007187  24.5216  34.8917 13.65379895797578

Acompanhe THORAD AGENA D DEB em tempo real com AllMySat

Download on the App Store